Logo di FIN Veneto

  HOME  >  NUOTO  >  MANIFESTAZIONI  >  TROFEO CITTA' DI PADOVA 2016 - 5░ Memorial " Katia Capuani"  >  RISULTATI

Google

Federazione Italiana Nuoto

Iscriviti ai Corsi del Settore Istruzione Tecnica



Risultati

Risultati del turno di gara 25 Stile Libero P1 M (Serie)

Tipo Cronometraggio: M
Base Vasca: 25
P C Cognome Nome Anno SocietÓ Tempo ottenuto Punti
Serie n░ 6
1░ 3 ZANELLATO DAVIDE 2008 PADOVANUOTO 00:23.8 0.00
2░ 4 GALLI TOGNOTTA PIETRO 2009 CENTRO NUOTO STRA 00:27.6 0.00
3░ 6 CARRARO MICHELE 2008 CENTRO NUOTO STRA 00:29.7 0.00
4░ 2 TROLESE LORENZO 2008 CENTRO NUOTO STRA 00:30.6 0.00
5░ 5 LORENZIN EDOARDO 2009 CENTRO NUOTO STRA 00:31.9 0.00
P C Cognome Nome Anno SocietÓ Tempo ottenuto Punti
Serie n░ 5
1░ 2 CIPPITANI MARCO 2009 AQUAPOLIS 00:29.9 0.00
2░ 3 VOLPIN RICCARDO 2008 TEAM PADOVA 00:32.3 0.00
3░ 5 ANTICO ANDREA 2009 AQUAPOLIS 00:35.6 0.00
4░ 4 DALLA ZUANNA ANDREA 2009 AQUAPOLIS 00:37.2 0.00
4░ 6 LO MANTO GABRIELE 2008 AQUAPOLIS 00:37.2 0.00
6░ 7 GUERRER SAMUELE 2010 PADOVANUOTO 00:38.4 0.00
P C Cognome Nome Anno SocietÓ Tempo ottenuto Punti
Serie n░ 4
1░ 2 STOCCO NICOLAI 2009 ROVIGONUOTO 00:27.0 0.00
2░ 5 MILAN GIANLUCA 2009 TEAM PADOVA 00:27.6 0.00
3░ 8 CASALINI DARIO 2009 PADOVANUOTO 00:28.0 0.00
4░ 6 D'IMPERIO ALESSANDRO 2008 ADRIA NUOTO 00:29.1 0.00
5░ 4 DAL MASCHIO PIETRO 2009 TEAM PADOVA 00:30.1 0.00
6░ 7 BIGARDI THOMAS 2009 PADOVANUOTO 00:31.0 0.00
7░ 1 BIGARDI DAVID 2009 PADOVANUOTO 00:31.5 0.00
8░ 3 PANERO LORENZO 2008 AQUAPOLIS 00:39.4 0.00
P C Cognome Nome Anno SocietÓ Tempo ottenuto Punti
Serie n░ 3
1░ 5 RAMAZZINA LUCA 2008 ROVIGONUOTO 00:22.8 0.00
2░ 6 BUGNOLI SAMUELE 2008 ADRIA NUOTO 00:23.1 0.00
3░ 4 FASOLATO GIANMARCO 2008 TEAM PADOVA 00:23.4 0.00
4░ 1 PERAZZOLO ALVISE 2008 Rappr. DELFINI ABANO 00:25.9 0.00
5░ 3 VENTURINI LORENZO 2008 PADOVANUOTO 00:26.0 0.00
6░ 8 DECENTI GIANLUCA 2008 Rappr. DELFINI ABANO 00:26.5 0.00
7░ 2 COSTA ALBERTO 2008 PADOVANUOTO 00:29.1 0.00
8░ 7 BERTACIN DAVIDE 2008 ROVIGONUOTO 00:29.7 0.00
P C Cognome Nome Anno SocietÓ Tempo ottenuto Punti
Serie n░ 2
1░ 2 BEDENDO GABRIELE 2008 ROVIGONUOTO 00:20.5 0.50
1░ 7 VIANELLO TIMOTHY 2009 AQUAPOLIS 00:20.5 0.50
3░ 4 BURATIN ALESSANDRO 2008 SWIM CONSELVE 00:20.9 0.00
4░ 6 MARANGON ALEX 2008 ADRIA NUOTO 00:22.0 0.00
5░ 1 ROSSETTO JACOPO 2008 Rappr. DELFINI ABANO 00:22.6 0.00
6░ 5 FRISO MARCO 2008 TEAM PADOVA 00:23.0 0.00
7░ 3 MARCOMINI PIETRO 2009 SWIM CONSELVE 00:24.7 0.00
8░ 8 GRIGOLETTO NICOLO' 2009 AQUAPOLIS 00:24.9 0.00
P C Cognome Nome Anno SocietÓ Tempo ottenuto Punti
Serie n░ 1
1░ 3 FERRARA FRANCESCO 2008 ROVIGONUOTO 00:18.1 9.00
2░ 4 SINAGRA GIUSEPPE MARCO 2008 Rappr. DELFINI ABANO 00:18.2 7.00
3░ 6 CIPRESSO SEBASTIANO 2008 Rappr. DELFINI ABANO 00:18.3 6.00
4░ 1 FORESTI NICCOLO 2008 PADOVANUOTO 00:18.8 5.00
5░ 7 ANDRIOLO ALESSANDRO 2008 Rappr. DELFINI ABANO 00:18.9 4.00
6░ 5 ZANDOLIN GIANMARCO 2008 Rappr. DELFINI ABANO 00:19.6 3.00
7░ 2 ZACCARIA ANDREA 2008 Rappr. DELFINI ABANO 00:19.7 2.00
8░ 8 SHEU MATTIA 2008 ROVIGONUOTO 00:26.2 0.00
Risultati gara ordinati per serie

Risultati riepilogativi del turno di gara 25 Stile Libero P1 M (Serie)

Tipo Cronometraggio: M
Base Vasca: 25
P S C Cognome Nome Anno SocietÓ Tempo ottenuto Punti
1░ 1 3 FERRARA FRANCESCO 2008 ROVIGONUOTO 00:18.1 9.00
2░ 1 4 SINAGRA GIUSEPPE MARCO 2008 Rappr. DELFINI ABANO 00:18.2 7.00
3░ 1 6 CIPRESSO SEBASTIANO 2008 Rappr. DELFINI ABANO 00:18.3 6.00
4░ 1 1 FORESTI NICCOLO 2008 PADOVANUOTO 00:18.8 5.00
5░ 1 7 ANDRIOLO ALESSANDRO 2008 Rappr. DELFINI ABANO 00:18.9 4.00
6░ 1 5 ZANDOLIN GIANMARCO 2008 Rappr. DELFINI ABANO 00:19.6 3.00
7░ 1 2 ZACCARIA ANDREA 2008 Rappr. DELFINI ABANO 00:19.7 2.00
8░ 2 2 BEDENDO GABRIELE 2008 ROVIGONUOTO 00:20.5 0.50
8░ 2 7 VIANELLO TIMOTHY 2009 AQUAPOLIS 00:20.5 0.50
10░ 2 4 BURATIN ALESSANDRO 2008 SWIM CONSELVE 00:20.9 0.00
11░ 2 6 MARANGON ALEX 2008 ADRIA NUOTO 00:22.0 0.00
12░ 2 1 ROSSETTO JACOPO 2008 Rappr. DELFINI ABANO 00:22.6 0.00
13░ 3 5 RAMAZZINA LUCA 2008 ROVIGONUOTO 00:22.8 0.00
14░ 2 5 FRISO MARCO 2008 TEAM PADOVA 00:23.0 0.00
15░ 3 6 BUGNOLI SAMUELE 2008 ADRIA NUOTO 00:23.1 0.00
16░ 3 4 FASOLATO GIANMARCO 2008 TEAM PADOVA 00:23.4 0.00
17░ 6 3 ZANELLATO DAVIDE 2008 PADOVANUOTO 00:23.8 0.00
18░ 2 3 MARCOMINI PIETRO 2009 SWIM CONSELVE 00:24.7 0.00
19░ 2 8 GRIGOLETTO NICOLO' 2009 AQUAPOLIS 00:24.9 0.00
20░ 3 1 PERAZZOLO ALVISE 2008 Rappr. DELFINI ABANO 00:25.9 0.00
21░ 3 3 VENTURINI LORENZO 2008 PADOVANUOTO 00:26.0 0.00
22░ 1 8 SHEU MATTIA 2008 ROVIGONUOTO 00:26.2 0.00
23░ 3 8 DECENTI GIANLUCA 2008 Rappr. DELFINI ABANO 00:26.5 0.00
24░ 4 2 STOCCO NICOLAI 2009 ROVIGONUOTO 00:27.0 0.00
25░ 6 4 GALLI TOGNOTTA PIETRO 2009 CENTRO NUOTO STRA 00:27.6 0.00
25░ 4 5 MILAN GIANLUCA 2009 TEAM PADOVA 00:27.6 0.00
27░ 4 8 CASALINI DARIO 2009 PADOVANUOTO 00:28.0 0.00
28░ 4 6 D'IMPERIO ALESSANDRO 2008 ADRIA NUOTO 00:29.1 0.00
28░ 3 2 COSTA ALBERTO 2008 PADOVANUOTO 00:29.1 0.00
30░ 3 7 BERTACIN DAVIDE 2008 ROVIGONUOTO 00:29.7 0.00
30░ 6 6 CARRARO MICHELE 2008 CENTRO NUOTO STRA 00:29.7 0.00
32░ 5 2 CIPPITANI MARCO 2009 AQUAPOLIS 00:29.9 0.00
33░ 4 4 DAL MASCHIO PIETRO 2009 TEAM PADOVA 00:30.1 0.00
34░ 6 2 TROLESE LORENZO 2008 CENTRO NUOTO STRA 00:30.6 0.00
35░ 4 7 BIGARDI THOMAS 2009 PADOVANUOTO 00:31.0 0.00
36░ 4 1 BIGARDI DAVID 2009 PADOVANUOTO 00:31.5 0.00
37░ 6 5 LORENZIN EDOARDO 2009 CENTRO NUOTO STRA 00:31.9 0.00
38░ 5 3 VOLPIN RICCARDO 2008 TEAM PADOVA 00:32.3 0.00
39░ 5 5 ANTICO ANDREA 2009 AQUAPOLIS 00:35.6 0.00
40░ 5 6 LO MANTO GABRIELE 2008 AQUAPOLIS 00:37.2 0.00
40░ 5 4 DALLA ZUANNA ANDREA 2009 AQUAPOLIS 00:37.2 0.00
42░ 5 7 GUERRER SAMUELE 2010 PADOVANUOTO 00:38.4 0.00
43░ 4 3 PANERO LORENZO 2008 AQUAPOLIS 00:39.4 0.00
Risultati gara riepilogativi

Gestisci una societÓ?
Devi iscrivere i tuoi atleti alle manifestazioni?

Accesso all'area di amministrazione Opzioni
Spiegazioni delle funzionalitÓ del portale   Stampa la pagina corrente   Imposta testo normale   Imposta testo ad alta leggibilitÓ

NUOTO+ Premium Swim Camp

Associazione Cronometristi Venezia

Oggi Treviso Logo

Assonuoto.com

Wela.it

Nuoto.com

Aqa

Coordinamento Associazioni Gestori Impianti Natatori

Privacy - Cookie